West Point, Ohio
Current Conditions -  °F | °C
As of 2:47 PM on Wednesday 26 Nov 2014 (Local Time) from KBVI Reporting Station
Haze Haze  
Wind Chill: 32°   Ceiling: 500
Heat Index: 32°   Visibility: 5mi
Dew Point: 32°   Wind: 3mph
Humidity: 100%   Direction: 350°N
Pressure: 30"   Gusts: NA
Location:  40.71°N, 80.7°W
Report Text: KBVI 261947Z 35003KT 5SM BR OVC005 00/00 A3000
Loading
Personal Weather Stations






























Interactive Weather Map New forecast layout! Learn more

10-Day Weather Forecast

Advertisements
Track Severe Weather on mobile